Weather History for KAAO - September, 2013

Change the Weather History Date:

Monday, September 16, 2013

  Actual Average (KICT) Record (KICT)
Temperature  
Mean Temperature 68 °F 71 °F  
Max Temperature 73 °F 83 °F 105 °F (1978)
Min Temperature 64 °F 59 °F 42 °F (1903)
Degree Days  
Heating Degree Days 0 1  
Month to date heating degree days 6  
Since 1 July heating degree days 7  
Cooling Degree Days 4 7  
Month to date cooling degree days 152  
Year to date cooling degree days 1579  
Growing Degree Days 18 (Base 50)    
Moisture  
Dew Point 66 °F    
Average Humidity 96    
Maximum Humidity 100    
Minimum Humidity 83    
Precipitation  
Precipitation 0.04 in 0.10 in 2.40 in (1958)
Month to date precipitation 1.70  
Year to date precipitation 25.79  
Snow  
Snow 0.00 in 0.00 in 0.00 in (2007)
Month to date snowfall 0.0  
Since 1 July snowfall 0.0  
Since 1 September snowfall 0.0  
Snow Depth -    
Sea Level Pressure  
Sea Level Pressure 30.14 in    
Wind  
Wind Speed 8 mph (ENE)    
Max Wind Speed 13 mph    
Max Gust Speed -    
Visibility 5 miles    
Events Rain    
T = Trace of Precipitation, MM = Missing Value Source: NWS Daily Summary

Daily Weather History Graph

Daily Weather History Graph

Search for Another Location

Airport or City:

Trip Planner

Search our weather history database for the weather conditions in past years. The results will help you decide how hot, cold, wet, or windy it might be!

Date:

Astronomy

Sep. 16, 2013 Rise Set
Actual Time 7:11 AM CDT 7:34 PM CDT
Civil Twilight 6:45 AM CDT 8:00 PM CDT
Nautical Twilight 6:14 AM CDT 8:31 PM CDT
Astronomical Twilight 5:43 AM CDT 9:03 PM CDT
Moon 5:42 PM CDT (9/16) 4:02 AM CDT (9/16)
Length of Visible Light 13h 15m
Length of Day
12h 22m
Waxing Gibbous, 90% of the Moon is Illuminated
Sep 16
Waxing Gibbous
Sep 19
Full
Sep 26
Last Quarter
Oct 4
New
Oct 11
First Quarter

Hourly Weather History & Observations

Time (CDT) Temp. Dew Point Humidity Pressure Visibility Wind Dir Wind Speed Gust Speed Precip Events Conditions
12:54 AM 66.0 °F 64.9 °F 96% 30.06 in 7.0 mi NNE 12.7 mph - N/A   Overcast
1:54 AM 66.0 °F 64.9 °F 96% 30.07 in 8.0 mi NNE 11.5 mph - N/A   Overcast
2:54 AM 64.9 °F 64.0 °F 97% 30.08 in 6.0 mi NE 10.4 mph - N/A   Overcast
3:54 AM 64.9 °F 64.0 °F 97% 30.10 in 5.0 mi NE 9.2 mph - N/A   Overcast
4:10 AM 64.4 °F 64.4 °F 100% 30.13 in 4.0 mi NE 9.2 mph - N/A   Overcast
4:54 AM 64.9 °F 64.0 °F 97% 30.10 in 4.0 mi ENE 9.2 mph - N/A   Overcast
5:50 AM 64.4 °F 64.4 °F 100% 30.15 in 2.5 mi NNE 5.8 mph - N/A   Overcast
5:54 AM 64.9 °F 64.0 °F 97% 30.12 in 2.5 mi NNE 5.8 mph - N/A   Overcast
6:19 AM 64.4 °F 64.4 °F 100% 30.16 in 1.8 mi NE 5.8 mph - N/A   Overcast
6:29 AM 64.4 °F 64.4 °F 100% 30.16 in 1.5 mi ENE 8.1 mph - N/A   Overcast
6:54 AM 64.9 °F 64.9 °F 100% 30.15 in 1.2 mi ENE 4.6 mph - N/A   Overcast
7:26 AM 64.4 °F 64.4 °F 100% 30.19 in 2.5 mi ENE 3.5 mph - N/A   Overcast
7:54 AM 66.0 °F 64.9 °F 96% 30.18 in 2.0 mi East 5.8 mph - N/A   Overcast
8:10 AM 66.2 °F 64.4 °F 94% 30.20 in 1.8 mi East 6.9 mph - N/A   Overcast
8:41 AM 66.2 °F 64.4 °F 94% 30.19 in 2.0 mi East 6.9 mph - N/A   Overcast
8:54 AM 66.0 °F 64.9 °F 96% 30.17 in 2.5 mi East 6.9 mph - N/A   Overcast
9:09 AM 66.2 °F 64.4 °F 94% 30.18 in 3.0 mi East 6.9 mph - N/A   Overcast
9:22 AM 66.2 °F 64.4 °F 94% 30.18 in 2.5 mi ENE 8.1 mph - 0.00 in Rain Light Rain
9:54 AM 66.0 °F 66.0 °F 100% 30.16 in 2.5 mi ENE 6.9 mph - 0.03 in Rain Light Rain
10:01 AM 66.2 °F 66.2 °F 100% 30.17 in 4.0 mi East 9.2 mph - 0.00 in Rain Light Rain
10:54 AM 66.9 °F 66.9 °F 100% 30.17 in 6.0 mi East 8.1 mph - 0.01 in   Overcast
11:54 AM 68.0 °F 66.9 °F 96% 30.16 in 8.0 mi East 8.1 mph - N/A   Overcast
12:54 PM 69.1 °F 68.0 °F 96% 30.16 in 9.0 mi East 4.6 mph - N/A   Overcast
1:09 PM 69.8 °F 68.0 °F 94% 30.18 in 9.0 mi SE 5.8 mph - N/A   Overcast
1:54 PM 71.1 °F 68.0 °F 90% 30.15 in 10.0 mi ESE 4.6 mph - N/A   Overcast
2:23 PM 71.6 °F 68.0 °F 88% 30.16 in 10.0 mi ESE 4.6 mph - N/A   Overcast
2:44 PM 73.4 °F 68.0 °F 83% 30.16 in 10.0 mi East 4.6 mph - N/A   Mostly Cloudy
2:54 PM 73.0 °F 68.0 °F 84% 30.13 in 10.0 mi ESE 3.5 mph - N/A   Mostly Cloudy
3:46 PM 73.4 °F 68.0 °F 83% 30.14 in 10.0 mi ENE 6.9 mph - N/A   Overcast
3:54 PM 73.0 °F 69.1 °F 87% 30.11 in 10.0 mi ENE 8.1 mph - N/A   Overcast
4:21 PM 71.6 °F 68.0 °F 88% 30.13 in 10.0 mi NE 6.9 mph - N/A   Overcast
4:54 PM 70.0 °F 66.9 °F 90% 30.11 in 7.0 mi ENE 5.8 mph - N/A   Overcast
5:54 PM 69.1 °F 66.9 °F 93% 30.11 in 8.0 mi NE 9.2 mph - N/A   Overcast
6:44 PM 66.2 °F 66.2 °F 100% 30.13 in 6.0 mi NE 10.4 mph - 0.00 in Rain Light Rain
6:54 PM 66.9 °F 66.0 °F 97% 30.11 in 7.0 mi ENE 8.1 mph - 0.00 in   Overcast
7:54 PM 66.9 °F 66.0 °F 97% 30.11 in 5.0 mi ENE 6.9 mph - N/A   Overcast
8:14 PM 66.2 °F 66.2 °F 100% 30.13 in 2.5 mi East 6.9 mph - N/A   Overcast
8:36 PM 66.2 °F 66.2 °F 100% 30.14 in 1.5 mi ENE 8.1 mph - N/A   Overcast
8:54 PM 66.0 °F 66.0 °F 100% 30.13 in 1.0 mi ENE 6.9 mph - N/A   Mist
9:54 PM 66.9 °F 66.0 °F 97% 30.14 in 1.2 mi East 6.9 mph - N/A   Overcast
10:22 PM 66.2 °F 66.2 °F 100% 30.16 in 0.8 mi East 4.6 mph - N/A   Mist
10:41 PM 66.2 °F 66.2 °F 100% 30.16 in 1.0 mi East 6.9 mph - N/A   Mist
10:54 PM 66.0 °F 66.0 °F 100% 30.14 in 1.0 mi ESE 5.8 mph - N/A   Mist
11:04 PM 66.2 °F 66.2 °F 100% 30.15 in 0.8 mi East 5.8 mph - N/A   Mist
11:46 PM 66.2 °F 66.2 °F 100% 30.15 in 1.2 mi ESE 4.6 mph - N/A   Overcast
11:54 PM 66.9 °F 66.9 °F 100% 30.14 in 1.8 mi SE 4.6 mph - N/A   Overcast